www.pogodaiklimat.ru

Погода и климат >> Архив погоды >> Россия >> Красноярский край >> Чемдальск


ПОГОДА в Чемдальске

  • Прогноз погоды в Чемдальске
  • Монитор погоды в Чемдальске
  • Климат города

АРХИВ ПОГОДЫ в Чемдальске

Время (UTC), дата Ветер
(напр.,м/с)
 
Видим.   Явления Облачность Т
(С)
Тd
(С)
f
(%)
Тe
(С)
Тes
(С)
Комфортность P
(гПа)
Po
(гПа)
Тmin
(С)
Tmax
(С)
R
(мм)
R24
(мм)
S
(см)
18 11.12 штиль 0 н/о ясно -32.1 -35.0 75 -32 -32 опасность
обморожения
1037.9 997.3
21 11.12 штиль 0 н/о ясно -33.6 -36.6 74 -34 -34 опасность
обморожения
1036.9 996.2
00 12.12 штиль 0 н/о 6 баллов -31.9 -35.0 74 -32 -32 опасность
обморожения
1037.8 997.3 -34.1
03 12.12 штиль 0 50 км 10 баллов -26.6 -29.0 80 -27 -27 1035.6 996.0
06 12.12 штиль 0 50 км 10 баллов -18.8 -20.7 85 -19 -19 1034.3 996.0
09 12.12 штиль 0 н/о 10 баллов -17.9 -19.8 85 -18 -18 1034.2 996.0
12 12.12 штиль 0 н/о 10 баллов -19.7 -22.3 80 -20 -20 1033.1 994.7 -17.3
15 12.12 штиль 0 н/о 10 баллов -17.5 -20.1 80 -18 -18 1031.3 993.3
18 12.12 штиль 0 н/о ясно -18.1 -20.7 80 -18 -18 1030.1 992.0
03 13.12 штиль 0 20 км слабый ливневой снег 10/10 600 м
[Cb cap]
-12.4 -14.4 85 -12 -12 1024.4 987.3
06 13.12 штиль 0 50 км 10 баллов -12.1 -14.1 85 0.0
09 13.12 штиль 0 н/о 10 баллов -9.9 -12.5 81 -10 -10 1020.6 984.0
12 13.12 штиль 0 н/о слабый снег 10/0
[As trans]
-9.5 -11.6 85 -10 -10 1020.1 983.7 -9.5 0.7
15 13.12 З 1 н/о слабый снег 10 баллов -9.4 -11.4 85 -12 -12 1019.1 982.7
18 13.12 ЮЗ 2 н/о 10 баллов -8.9 -11.3 83 -13 -13 1019.1 982.7
21 13.12 ЮЗ 1 н/о {снег} 8/0 2000 м
[As trans]
-9.9 -12.0 85 -12 -12 1018.0 981.6
00 14.12 штиль 0 н/о 10 баллов -9.9 -11.9 85 -10 -10 1017.8 981.3 -10.5 0.3
03 14.12 штиль 0 20 км слабый снег 10 баллов -10.0 -12.0 85 -10 -10 1016.4 980.0
06 14.12 Ю 1 10 км слабый снег 10 баллов -9.3 -11.3 85 -12 -12 1015.0 978.7
09 14.12 штиль 0 н/о слабый снег 10 баллов -9.4 -11.4 85 -10 -10 1012.2 976.0
12 14.12 ЮЗ 1 н/о слабый снег 10 баллов -9.4 -11.4 85 -12 -12 1010.8 974.7 -9.0 1
15 14.12 Ю 1 н/о слабый снег 10 баллов -10.0 -12.0 85 -12 -12 1010.9 974.7
18 14.12 ЮЗ 2 н/о слабый снег 10 баллов -11.2 -13.2 85 -16 -16 1011.1 974.7
00 15.12 З 2 н/о 10 баллов -12.6 -15.3 80 -17 -17 1012.6 976.0 -12.7 0.5
03 15.12 штиль 0 50 км 10 баллов -16.2 -18.1 85 -16 -16 1011.8 974.7 -16.2
06 15.12 Ю 2 20 км слабый снег 10 баллов -12.5 -15.2 80 -17 -17 1011.3 974.7
09 15.12 З 3 н/о слабый снег 10 баллов -12.0 -14.7 80 -18 -18 1008.4 972.0
12 15.12 З 2 н/о слабый снег 10 баллов -10.8 -13.6 80 -15 -15 1005.4 969.3 -10.8 1
15 15.12 ЮЗ 1 н/о слабый снег 10 баллов -9.5 -11.5 85 -12 -12 1003.9 968.0
18 15.12 З 2 н/о слабый снег 10 баллов -8.5 -10.9 83 -13 -13 1002.4 966.7
00 16.12 СЗ 3 н/о 10 баллов -14.0 -18.3 70 -20 -20 1011.5 974.7 -14.0 1
03 16.12 З 2 50 км 2 балла -17.8 -21.1 75 -23 -23 1017.6 980.0 -17.8
06 16.12 ЮЗ 2 50 км 6 баллов -18.0 -21.3 75 -23 -23 1019.0 981.3
09 16.12 штиль 0 н/о 10 баллов -21.7 -24.2 80 -22 -22 1021.0 982.7
12 16.12 штиль 0 н/о 10 баллов -26.9 -29.3 80 -27 -27 1021.8 982.7 -14.0
15 16.12 штиль 0 н/о 10 баллов -27.5 -30.7 74 -28 -28 1020.4 981.3
18 16.12 штиль 0 н/о ясно -27.6 -30.6 75 -28 -28 1019.1 980.0
00 17.12 штиль 0 н/о 7 баллов -34.1 -37.1 74 -34 -34 опасность
обморожения
1021.5 981.3 -34.6
03 17.12 ЮВ 1 50 км 10 баллов -22.6 -25.1 80 -26 -26 1015.5 977.3
06 17.12 Ю 1 10 км слабый снег 10 баллов -16.0 -18.6 80 -19 -19 1011.8 974.7
09 17.12 З 2 н/о слабый снег 10 баллов -13.3 -16.0 80 -18 -18 1008.6 972.0
12 17.12 З 2 н/о слабый снег 10 баллов -11.5 -14.2 80 -16 -16 1007.0 970.7 -11.5 2
15 17.12 СЗ 2 н/о слабый снег 10 баллов -10.4 -13.2 80 -15 -15 1008.2 972.0
18 17.12 З 1 н/о слабый снег 10 баллов -12.4 -14.4 85 -15 -15 1009.8 973.3
00 18.12 штиль 0 н/о 10 баллов -13.4 -14.7 90 -13 -13 1010.0 973.3 -14.5 2
03 18.12 ЮЗ 1 4000 м слабый снег 10 баллов -10.6 -11.9 90 -13 -13 1008.2 972.0
06 18.12 ЮЗ 2 20 км слабый снег 10 баллов -10.0 -12.8 80 -14 -14 1005.3 969.3
09 18.12 З 2 н/о слабый снег 10 баллов -9.5 -12.1 81 -14 -14 1005.3 969.3
12 18.12 ЮЗ 2 н/о слабый снег 10 баллов -9.1 -11.6 82 -14 -14 1005.2 969.3 -9.1 3

 

Местоположение метеостанции Чемдальск (Красноярский край, Россия): широта 59.63 долгота 103.30 высота над уровнем моря 282 м.

В архиве по умолчанию представлена погода в Чемдальске за последнюю неделю. Архивные данные за месяц целиком и за предыдущие месяцы, начиная с января 2011 года, Вы можете получить, выбрав интересующий диапазон дат из раскрывающегося списка и нажав кнопку "Ввод!".


*Определитесь, кто Вы:
робот инопланетянин человек

Внимание! Время в таблицах - всемирное. Для получения местного времени необходимо прибавить поправку, которая в Чемдальске равна 7 ч.

Смотрите также архив погоды в соседних городах и на ближайших метеорологических станциях:

Погода в Ванаваре (Эвенкия, Россия) (96 км)
Погода в Ике (Иркутская область, Россия) (163 км)
Погода в Усть-Илимске (Иркутская область, Россия) (188 км)
Погода в Токме (Иркутская область, Россия) (208 км)
Погода в Стрелке-Чуне (Эвенкия, Россия) (237 км)
Погода в Муторае (Эвенкия, Россия) (247 км)
Погода в Кодинске (Красноярский край, Россия) (260 км)
Погода в Преображенке (Иркутская область, Россия) (267 км)
Погода в Новой Игирме (Иркутская область, Россия) (282 км)
Погода в Ершово (Иркутская область, Россия) (285 км)

Пояснения к столбцам:

Ветер - указаны скорость ветра в м/с - средняя за 10 мин, порывы в срок и между сроками (в фигурных скобках) и направление, откуда дует ветер: С - северный, СВ - северо-восточный, В - восточный, ЮВ - юго-восточный, Ю - южный, ЮЗ - юго-западный, З - западный, СЗ - северо-западный.
Видимость - горизонтальная дальность видимости в метрах или километрах. При видимости от 1 до 10 км при отсутствии осадков обычно наблюдается дымка, при ухудшении видимости до 1 км и менее - туман. В сухую погоду видимость может ухудшаться дымом, пылью или мглою.
Явления - указаны атмосферные явления, наблюдавшиеся в срок или в последний час перед сроком; фигурными скобками обозначены явления, наблюдавшиеся между сроками (за 1-3 часа до срока); квадратными скобками обозначены град или гололедные отложения с указанием их диаметра в мм.
Облачность - указаны через наклонную черту общая и нижняя облачность в баллах и высота нижней границы облаков в метрах; квадратными скобками обозначены формы облаков: Ci - перистые, Cs - перисто-слоистые, Cc - перисто-кучевые, Ac - высококучевые, As - высокослоистые, Sc - слоисто-кучевые, Ns - слоисто-дождевые, Cu - кучевые, Cb - кучево-дождевые. Подробнее классификацию облаков см. в Атласе облаков (PDF).
T - Температура воздуха - температура, измеренная на высоте 2 м над землей.
Td - Температура точки росы - температура, при понижении до которой содержащийся в воздухе водяной пар достигнет насыщения.
f - Относительная влажность воздуха - влажноcть воздуха, измеренная на высоте 2 м над землей.
Te - Эффективная температура - температура, которую ощущает одетый по сезону человек в тени. Характеристика душности погоды. При расчете учитывается влияние влажности воздуха и скорости ветра на теплоощущения человека.
Tes - Эффективная температура на солнце - температура, которую ощущает человек, с поправкой на солнечный нагрев. Характеристика знойности погоды. Зависит от высоты солнца над горизонтом, облачности и скорости ветра. Ночью, в пасмурную погоду, а также при ветре 12 м/с и более поправка равна нулю.
P - Атмосферное давление - приведенное к уровню моря атмосферное давление.
Po - Атмосферное давление - измеренное на уровне метеостанции атмосферное давление.
Tmin - Минимальная температура - минимум температуры воздуха на высоте 2 м над землей.
Tmax - Максимальная температура - максимум температуры воздуха на высоте 2 м над землей.
R - Количество осадков - Количество выпавших осадков за период времени, мм. При наведении курсора мыши на число - период времени, за который выпало указанное количество осадков.
R24 - Количество осадков - Количество выпавших осадков за 24 часа, мм.
S - Снежный покров - Высота снежного покрова, см. При наведении курсора мыши на число - состояние снежного покрова и степень покрытия местности в баллах.